Weather History for KBCE - August, 2013

Change the Weather History Date:

Saturday, August 17, 2013

  Actual Average Record
Temperature  
Mean Temperature 65 °F -  
Max Temperature 77 °F 76 °F 88 °F (2002)
Min Temperature 53 °F 44 °F 31 °F (1960)
Growing Degree Days 15 (Base 50)    
Moisture  
Dew Point 47 °F    
Average Humidity 64    
Maximum Humidity 88    
Minimum Humidity 31    
Precipitation  
Precipitation 0.60 in - - ()
Sea Level Pressure  
Sea Level Pressure 30.18 in    
Wind  
Wind Speed 6 mph (NNE)    
Max Wind Speed 30 mph    
Max Gust Speed 41 mph    
Visibility 10 miles    
Events Rain , Thunderstorm    
Averages and records for this station are not official NWS values.
T = Trace of Precipitation, MM = Missing Value Source: NWS Daily Summary

Daily Weather History Graph

Daily Weather History Graph

Search for Another Location

Airport or City:

Trip Planner

Search our weather history database for the weather conditions in past years. The results will help you decide how hot, cold, wet, or windy it might be!

Date:

Astronomy

Aug. 17, 2013 Rise Set
Actual Time 6:46 AM MDT 8:18 PM MDT
Civil Twilight 6:18 AM MDT 8:45 PM MDT
Nautical Twilight 5:45 AM MDT 9:19 PM MDT
Astronomical Twilight 5:09 AM MDT 9:54 PM MDT
Moon 5:35 PM MDT (8/17) 2:55 AM MDT (8/17)
Length of Visible Light 14h 27m
Length of Day
13h 32m
Waxing Gibbous, 85% of the Moon is Illuminated
Aug 17
Waxing Gibbous
Aug 20
Full
Aug 28
Last Quarter
Sep 5
New
Sep 12
First Quarter

Hourly Weather History & Observations

Time (MDT) Temp. Dew Point Humidity Pressure Visibility Wind Dir Wind Speed Gust Speed Precip Events Conditions
12:53 AM 57.0 °F 39.9 °F 53% 30.01 in 10.0 mi Calm Calm - N/A   Clear
1:53 AM 54.0 °F 41.0 °F 62% 30.02 in 10.0 mi West 8.1 mph - N/A   Clear
2:53 AM 54.0 °F 41.0 °F 62% 30.02 in 10.0 mi West 4.6 mph - N/A   Clear
3:53 AM 53.1 °F 41.0 °F 64% 30.01 in 10.0 mi WSW 4.6 mph - N/A   Scattered Clouds
4:34 AM 55.4 °F 42.8 °F 63% 30.41 in 10.0 mi Calm Calm - N/A Thunderstorm Thunderstorm
4:53 AM 57.0 °F 42.1 °F 57% 30.00 in 10.0 mi North 5.8 mph - N/A Thunderstorm Thunderstorm
5:08 AM 57.2 °F 41.0 °F 55% 30.39 in 10.0 mi Calm Calm - N/A Thunderstorm Scattered Clouds
5:53 AM 62.1 °F 44.1 °F 52% 29.97 in 10.0 mi NNE 5.8 mph - 0.00 in   Overcast
6:17 AM 62.6 °F 42.8 °F 48% 30.40 in 10.0 mi NNW 3.5 mph - N/A Thunderstorm Scattered Clouds
6:44 AM 60.8 °F 42.8 °F 52% 30.41 in 10.0 mi North 3.5 mph - N/A   Mostly Cloudy
6:53 AM 61.0 °F 44.1 °F 54% 30.01 in 10.0 mi NNW 5.8 mph - 0.00 in Rain Light Rain
7:53 AM 60.1 °F 46.9 °F 62% 30.04 in 10.0 mi NW 3.5 mph - 0.00 in Thunderstorm Mostly Cloudy
8:11 AM 62.6 °F 48.2 °F 59% 30.43 in 10.0 mi Calm Calm - 0.00 in Rain Light Rain
8:40 AM 60.8 °F 51.8 °F 72% 30.43 in 10.0 mi NNE 4.6 mph - 0.01 in Thunderstorm Thunderstorm
8:53 AM 60.1 °F 50.0 °F 69% 30.04 in 10.0 mi NE 13.8 mph - 0.01 in Thunderstorm Overcast
9:11 AM 60.8 °F 50.0 °F 68% 30.44 in 10.0 mi NE 12.7 mph - N/A   Mostly Cloudy
9:53 AM 64.9 °F 50.0 °F 58% 30.08 in 10.0 mi NE 9.2 mph - N/A   Clear
10:53 AM 69.1 °F 46.9 °F 45% 30.07 in 10.0 mi NE 12.7 mph - N/A   Clear
11:53 AM 75.9 °F 43.0 °F 31% 30.05 in 10.0 mi Variable 4.6 mph - N/A   Clear
12:50 PM 77.0 °F 44.6 °F 32% 30.40 in 10.0 mi SE 12.7 mph 19.6 mph N/A Thunderstorm Partly Cloudy
12:53 PM 75.9 °F 44.1 °F 32% 30.01 in 10.0 mi SSE 11.5 mph - N/A Thunderstorm Partly Cloudy
1:45 PM 60.8 °F 51.8 °F 72% 30.40 in 1.8 mi North 15.0 mph - 0.26 in Rain , Thunderstorm Heavy Thunderstorms and Rain
1:53 PM 55.9 °F 48.9 °F 77% 30.12 in 2.0 mi NNE 12.7 mph - 0.39 in Rain , Thunderstorm Heavy Thunderstorms and Rain
2:02 PM 55.4 °F 51.8 °F 88% 30.41 in 10.0 mi North 3.5 mph - 0.01 in Rain , Thunderstorm Light Thunderstorms and Rain
2:53 PM 64.0 °F 53.1 °F 67% 30.07 in 10.0 mi NE 5.8 mph - 0.04 in Thunderstorm Partly Cloudy
3:53 PM 60.1 °F 52.0 °F 75% 30.06 in 9.0 mi East 8.1 mph - 0.04 in Rain , Thunderstorm Light Rain
4:34 PM 60.8 °F 51.8 °F 72% 30.37 in 10.0 mi ESE 9.2 mph - 0.00 in Thunderstorm Overcast
4:53 PM 60.1 °F 54.0 °F 80% 30.07 in 10.0 mi Calm Calm - 0.00 in Thunderstorm Overcast
5:53 PM 62.1 °F 46.0 °F 56% 30.03 in 9.0 mi SSW 29.9 mph 41.4 mph 0.10 in Rain , Thunderstorm Light Thunderstorms and Rain
6:53 PM 61.0 °F 46.9 °F 60% 30.05 in 10.0 mi NE 20.7 mph 25.3 mph 0.02 in Thunderstorm Overcast
7:09 PM 57.2 °F 48.2 °F 72% 30.41 in 10.0 mi ENE 8.1 mph 27.6 mph 0.00 in Rain Light Rain
7:16 PM 60.8 °F 48.2 °F 63% 30.42 in 10.0 mi NE 8.1 mph 17.3 mph 0.00 in Rain , Thunderstorm Light Rain
7:31 PM 57.2 °F 51.8 °F 82% 30.43 in 10.0 mi NE 5.8 mph - 0.00 in Rain Light Rain
7:53 PM 57.9 °F 52.0 °F 81% 30.12 in 10.0 mi NE 13.8 mph - 0.00 in   Mostly Cloudy
8:53 PM 57.9 °F 48.9 °F 72% 30.11 in 10.0 mi ESE 9.2 mph - N/A   Clear
9:53 PM 55.0 °F 51.1 °F 86% 30.11 in 10.0 mi West 9.2 mph - N/A   Mostly Cloudy
10:53 PM 57.0 °F 50.0 °F 77% 30.09 in 10.0 mi WNW 11.5 mph - N/A   Mostly Cloudy
11:53 PM 54.0 °F 50.0 °F 86% 30.07 in 10.0 mi NW 6.9 mph - N/A   Clear